Location: Unspecified
(0.0000°N, 0.0000°E)
Time: 21:54:07
(UTC+00:00)

USA 136 - Pass Details

Date: 15 June 2023
Orbit: 3538 x 36810 km, 63.6° (Epoch: 27 February)

Event Time Altitude Azimuth Distance (km) Brightness Sun altitude
Rises 07:13:12 0° 182° (S) 7,994 7.4 16.7°
Reaches altitude 10° 07:17:26 10° 173° (S) 7,425 7.4 17.6°
Maximum altitude 07:43:25 45° 95° (E) 9,428 9.2 23.5°
Drops below altitude 10° 11:38:32 10° 20° (NNE) 39,820 11.7 66.1°
Enters shadow 18:26:56 - 111° (ESE) 11,979 7.9 -6.1°
